User: anonymous   Login
Location: Hepcat Sky Observatory
(29.9800°N, 95.6500°W)
Time: 01:10:32
(UTC-05:00)
Language:

Cosmos 2151 Rocket - Orbit

View from above orbital plane
View from above orbital plane
View from above satellite
View from above satellite

Ground track
Ground track

The orbit data is extracted from the following two-line orbital elements,

1 21423U 91042B   14304.09581284  .00000457  00000-0  58274-4 0  8464
2 21423 082.4915 138.4541 0018768 151.2692 330.0019 14.79289719260624
Epoch (UTC): 31 October 2014 02:17:58
Eccentricity: 0.0018768
inclination: 82.4915°
perigee height: 618 km
apogee height: 645 km
right ascension of ascending node: 138.4541°
argument of perigee: 151.2692°
revolutions per day: 14.79289719
mean anomaly at epoch: 330.0019°
orbit number at epoch: 26062

The dashed part of the orbit path shows where the satellite is in the earth's shadow,  

DLR